Location: Brad
(46.1333°N, 22.7833°E)
Time: 05:58:30
(UTC+00:00)

Lacrosse 5 - Pass Details

Date: 03 February 2023
Orbit: 714 x 724 km, 57.0° (Epoch: 09 March)

Event Time Altitude Azimuth Distance (km) Brightness Sun altitude
Rises 18:28:58 0° 265° (W) 3,134 6.3 -30.1°
Reaches altitude 10° 18:31:34 10° 275° (W) 2,216 5.3 -30.5°
Enters shadow 18:35:50 33° 331° (NNW) 1,219 3.2 -31.3°
